Ironwood, MI

7:02 PM CDT on May 29, 2017 (GMT -0500)
Gogebic-Iron County

Weather History for KIWD - September, 2012

Change the Weather History Date:

Saturday, September 29, 2012

  Actual Average Record
Temperature  
Mean Temperature 50 °F -  
Max Temperature 66 °F 57 °F 77 °F (2000)
Min Temperature 33 °F 38 °F 26 °F (2003)
Degree Days  
Heating Degree Days 16    
Moisture  
Dew Point 37 °F    
Average Humidity 70    
Maximum Humidity 93    
Minimum Humidity 35    
Precipitation  
Precipitation 0.00 in - - ()
Sea Level Pressure  
Sea Level Pressure 30.08 in    
Wind  
Wind Speed 2 mph (North)    
Max Wind Speed 13 mph    
Max Gust Speed 16 mph    
Visibility 10 miles    
Events      
Averages and records for this station are not official NWS values.
T = Trace of Precipitation, MM = Missing Value Source: NWS Daily Summary

Daily Weather History Graph

Daily Weather History Graph

Search for Another Location

Airport or City:

Trip Planner

Search our weather history database for the weather conditions in past years. The results will help you decide how hot, cold, wet, or windy it might be!

Date:

Astronomy

Sep. 29, 2012 Rise Set
Actual Time 6:57 AM CDT 6:43 PM CDT
Civil Twilight 6:27 AM CDT 7:13 PM CDT
Nautical Twilight 5:51 AM CDT 7:48 PM CDT
Astronomical Twilight 5:16 AM CDT 8:23 PM CDT
Moon 6:12 PM CDT (9/29) 6:29 AM CDT (9/29)
Length of Visible Light 12h 46m
Length of Day
11h 46m
Full, 100% of the Moon is Illuminated
Sep 29
Full
Sep 29
Full
Oct 8
Last Quarter
Oct 15
New
Oct 21
First Quarter

Hourly Weather History & Observations

Time (CDT) Temp. Dew Point Humidity Pressure Visibility Wind Dir Wind Speed Gust Speed Precip Events Conditions
12:15 AM 41.0 °F 37.4 °F 87% 30.07 in 10.0 mi Calm Calm - N/A   Clear
12:35 AM 39.2 °F 37.4 °F 93% 30.08 in 10.0 mi Calm Calm - N/A   Clear
12:55 AM 39.2 °F 35.6 °F 87% 30.07 in 10.0 mi Calm Calm - N/A   Clear
1:15 AM 39.2 °F 35.6 °F 87% 30.07 in 10.0 mi Calm Calm - N/A   Clear
1:35 AM 39.2 °F 35.6 °F 87% 30.07 in 10.0 mi Calm Calm - N/A   Clear
1:55 AM 39.2 °F 35.6 °F 87% 30.07 in 10.0 mi Calm Calm - N/A   Clear
2:15 AM 39.2 °F 35.6 °F 87% 30.07 in 10.0 mi Calm Calm - N/A   Clear
2:35 AM 39.2 °F 35.6 °F 87% 30.07 in 10.0 mi Calm Calm - N/A   Clear
2:55 AM 37.4 °F 33.8 °F 87% 30.06 in 10.0 mi Calm Calm - N/A   Clear
3:15 AM 37.4 °F 33.8 °F 87% 30.07 in 10.0 mi Calm Calm - N/A   Clear
3:35 AM 37.4 °F 33.8 °F 87% 30.06 in 10.0 mi Calm Calm - N/A   Clear
3:55 AM 37.4 °F 33.8 °F 87% 30.06 in 10.0 mi Calm Calm - N/A   Clear
4:15 AM 35.6 °F 33.8 °F 93% 30.07 in 10.0 mi Calm Calm - N/A   Clear
4:35 AM 35.6 °F 32.0 °F 87% 30.06 in 10.0 mi Calm Calm - N/A   Clear
4:55 AM 35.6 °F 32.0 °F 87% 30.06 in 8.0 mi Calm Calm - N/A   Clear
5:15 AM 35.6 °F 32.0 °F 87% 30.07 in 10.0 mi Calm Calm - N/A   Clear
5:35 AM 35.6 °F 32.0 °F 87% 30.07 in 10.0 mi Calm Calm - N/A   Clear
5:55 AM 35.6 °F 32.0 °F 87% 30.07 in 10.0 mi Calm Calm - N/A   Clear
6:15 AM 35.6 °F 30.2 °F 81% 30.08 in 10.0 mi Calm Calm - N/A   Clear
6:35 AM 35.6 °F 30.2 °F 81% 30.08 in 10.0 mi Calm Calm - N/A   Clear
6:55 AM 33.8 °F 30.2 °F 87% 30.09 in 10.0 mi Calm Calm - N/A   Clear
7:15 AM 33.8 °F 30.2 °F 87% 30.09 in 10.0 mi Calm Calm - N/A   Clear
7:35 AM 35.6 °F 30.2 °F 81% 30.10 in 10.0 mi Calm Calm - N/A   Clear
7:55 AM 37.4 °F 32.0 °F 81% 30.10 in 10.0 mi Calm Calm - N/A   Clear
8:15 AM 39.2 °F 35.6 °F 87% 30.10 in 10.0 mi Calm Calm - N/A   Clear
8:35 AM 42.8 °F 37.4 °F 81% 30.10 in 10.0 mi Calm Calm - N/A   Clear
8:55 AM 46.4 °F 39.2 °F 76% 30.10 in 10.0 mi Calm Calm - N/A   Clear
9:15 AM 50.0 °F 41.0 °F 71% 30.10 in 10.0 mi Calm Calm - N/A   Clear
10:35 AM 59.0 °F 41.0 °F 51% 30.10 in 10.0 mi ENE 3.5 mph - N/A   Clear
10:55 AM 60.8 °F 42.8 °F 52% 30.10 in 10.0 mi North 3.5 mph - N/A   Clear
11:55 AM 64.4 °F 42.8 °F 45% 30.10 in 10.0 mi Calm Calm - N/A   Clear
12:15 PM 66.2 °F 39.2 °F 37% 30.09 in 10.0 mi NNE 9.2 mph - N/A   Clear
12:35 PM 66.2 °F 37.4 °F 35% 30.09 in 10.0 mi NNE 8.1 mph - N/A   Clear
12:55 PM 64.4 °F 44.6 °F 49% 30.09 in 10.0 mi North 5.8 mph - N/A   Clear
1:15 PM 64.4 °F 42.8 °F 45% 30.08 in 10.0 mi NNE 6.9 mph - N/A   Clear
1:35 PM 64.4 °F 41.0 °F 42% 30.08 in 10.0 mi North 9.2 mph - N/A   Clear
1:55 PM 64.4 °F 41.0 °F 42% 30.08 in 10.0 mi NNW 11.5 mph - N/A   Clear
2:15 PM 64.4 °F 42.8 °F 45% 30.08 in 10.0 mi North 11.5 mph - N/A   Clear
2:35 PM 64.4 °F 42.8 °F 45% 30.08 in 10.0 mi NNW 11.5 mph - N/A   Clear
2:55 PM 64.4 °F 41.0 °F 42% 30.07 in 10.0 mi North 9.2 mph - N/A   Clear
3:15 PM 62.6 °F 41.0 °F 45% 30.07 in 10.0 mi NNW 12.7 mph 16.1 mph N/A   Clear
3:35 PM 62.6 °F 42.8 °F 48% 30.07 in 10.0 mi North 11.5 mph - N/A   Clear
3:55 PM 62.6 °F 44.6 °F 52% 30.06 in 10.0 mi North 10.4 mph - N/A   Clear
4:15 PM 60.8 °F 42.8 °F 52% 30.07 in 10.0 mi North 9.2 mph - N/A   Clear
4:35 PM 60.8 °F 42.8 °F 52% 30.06 in 10.0 mi North 10.4 mph - N/A   Clear
5:15 PM 59.0 °F 42.8 °F 55% 30.07 in 10.0 mi North 9.2 mph - N/A   Clear